EW4999 Weather Reports


time (UTC)temp
C
wind
direction
speed
KPH
gust
KPH
rain 1hr
cm
rain 24hr
cm
rain mn
cm
humidity
%
barometer
mb
20260504140444 12 161 6.4 14.5 0.00 0.00 0.00 56 1007.2
20260504100439 5 229 1.6 4.8 0.00 0.00 0.00 84 1008.0
20260504081157 5 174 0.0 3.2 0.00 0.00 0.00 85 1008.1
20260504045646 2 231 0.0 1.6 0.00 0.00 0.00 82 1008.5
20260504044145 2 230 0.0 3.2 0.00 0.00 0.00 82 1008.4
20260504042646 2 58 1.6 3.2 0.00 0.00 0.00 80 1008.3
20260504041144 2 53 0.0 0.0 0.00 0.00 0.00 80 1008.3
20260504040416 1 53 0.0 0.0 0.00 0.00 0.00 81 1008.4
20260504034142 1 53 0.0 0.0 0.00 0.00 0.00 82 1008.3
20260504032643 1 53 0.0 0.0 0.00 0.00 0.00 82 1008.1
20260504031142 1 53 0.0 0.0 0.00 0.00 0.00 81 1008.3
20260504025638 1 44 0.0 0.0 0.00 0.00 0.00 77 1008.3
20260504024137 2 44 0.0 0.0 0.00 0.00 0.00 75 1008.3
20260504023411 2 44 0.0 0.0 0.00 0.00 0.00 74 1008.3
20260504021134 2 44 0.0 0.0 0.00 0.00 0.00 75 1008.4
20260504015635 2 44 0.0 3.2 0.00 0.00 0.00 74 1008.1
20260504014135 2 5 0.0 3.2 0.00 0.00 0.00 77 1008.0
20260504012630 2 5 0.0 0.0 0.00 0.00 0.00 75 1007.9
20260504011130 2 5 0.0 3.2 0.00 0.00 0.00 71 1007.7
20260504005632 3 5 0.0 0.0 0.00 0.00 0.00 70 1007.5
20260504004126 3 5 0.0 0.0 0.00 0.00 0.00 68 1007.3
20260504002623 4 5 0.0 3.2 0.00 0.00 0.00 66 1007.3
20260504001123 5 5 0.0 0.0 0.00 0.00 0.00 62 1007.1
20260503235624 6 5 0.0 0.0 0.00 0.00 0.00 58 1007.0
20260503234123 7 5 0.0 3.2 0.00 0.00 0.00 56 1006.9
20260503232620 7 5 0.0 4.8 0.00 0.00 0.00 51 1006.7
20260503231115 8 5 0.0 9.7 0.00 0.00 0.00 47 1006.7
20260503225613 8 58 1.6 9.7 0.00 0.00 0.00 47 1006.6
20260503224111 8 282 3.2 12.9 0.00 0.00 0.00 46 1006.6
20260503222611 8 121 3.2 11.3 0.00 0.00 0.00 47 1006.6
20260503221112 8 202 3.2 24.1 0.00 0.00 0.00 47 1006.6
20260503215613 8 319 4.8 24.1 0.00 0.00 0.00 47 1006.5
20260503214107 8 286 3.2 14.5 0.00 0.00 0.00 48 1006.3
20260503212605 8 54 3.2 12.9 0.00 0.00 0.00 48 1006.3
20260503211838 8 305 3.2 20.9 0.00 0.00 0.00 49 1006.3
20260503205605 8 30 4.8 24.1 0.00 0.00 0.00 48 1006.4
20260503204106 8 53 4.8 12.9 0.00 0.00 0.00 47 1006.4
20260503202606 8 14 3.2 14.5 0.00 0.00 0.00 47 1006.3
20260503201101 8 310 3.2 16.1 0.00 0.00 0.00 47 1006.3
20260503195559 8 303 4.8 19.3 0.00 0.00 0.00 46 1006.3
20260503194059 8 78 6.4 20.9 0.00 0.00 0.00 47 1006.3
20260503192559 7 26 6.4 20.9 0.00 0.00 0.00 48 1006.4
20260503191059 8 71 8.0 24.1 0.00 0.00 0.00 46 1006.5
20260503185601 7 219 8.0 27.4 0.00 0.00 0.00 47 1006.4
20260503184054 7 308 4.8 20.9 0.00 0.00 0.00 46 1006.5
20260503182554 8 246 8.0 20.9 0.00 0.00 0.00 46 1006.4
20260503181053 8 62 4.8 22.5 0.00 0.00 0.00 47 1006.1
20260503175554 8 5 4.8 19.3 0.00 0.00 0.00 43 1005.8
20260503174053 8 168 6.4 27.4 0.00 0.00 0.00 43 1005.8
20260503172555 8 346 4.8 24.1 0.00 0.00 0.00 44 1005.9
20260503171048 8 9 4.8 20.9 0.00 0.00 0.00 47 1006.0
20260503170318 8 70 4.8 20.9 0.00 0.00 0.00 47 1006.0